Springfield, VT

10:46 PM EDT on May 25, 2018 (GMT -0400)
Hartness State

Weather History for KVSF - February, 2014

Change the Weather History Date:

Saturday, February 8, 2014

  Actual Average Record
Temperature  
Mean Temperature 12 °F 22 °F  
Max Temperature 25 °F 31 °F 50 °F (2009)
Min Temperature -2 °F 12 °F -7 °F (2000)
Degree Days  
Heating Degree Days 53 44  
Month to date heating degree days 354 355  
Since 1 July heating degree days 4779 4627  
Cooling Degree Days 0 0  
Month to date cooling degree days 0  
Year to date cooling degree days 0  
Moisture  
Dew Point 0 °F    
Average Humidity 59    
Maximum Humidity 83    
Minimum Humidity 35    
Precipitation  
Precipitation 0.00 in 0.10 in 0.42 in (2013)
Month to date precipitation 0.42 0.74  
Year to date precipitation 2.71 3.66  
Sea Level Pressure  
Sea Level Pressure 30.22 in    
Wind  
Wind Speed 3 mph (West)    
Max Wind Speed 13 mph    
Max Gust Speed 18 mph    
Visibility 10 miles    
Events      
T = Trace of Precipitation, MM = Missing Value Source: NWS Daily Summary

Daily Weather History Graph

Daily Weather History Graph

Search for Another Location

Airport or City:

Astronomy

Feb. 08, 2014 Rise Set
Actual Time 6:57 AM EST 5:11 PM EST
Civil Twilight 6:27 AM EST 5:41 PM EST
Nautical Twilight 5:54 AM EST 6:15 PM EST
Astronomical Twilight 5:20 AM EST 6:48 PM EST
Moon 12:00 PM EST (2/8) 2:09 AM EST (2/8)
Length of Visible Light 11h 13m
Length of Day
10h 13m
Waxing Gibbous, 68% of the Moon is Illuminated
Feb 8
Waxing Gibbous
Feb 14
Full
Feb 22
Last Quarter
Mar 1
New
Mar 8
First Quarter

Hourly Weather History & Observations

Time (EST) Temp. Windchill Dew Point Humidity Pressure Visibility Wind Dir Wind Speed Gust Speed Precip Events Conditions
12:54 AM 9.0 °F - 1.0 °F 70% 30.21 in 10.0 mi Calm Calm - N/A   Clear
1:54 AM 12.9 °F 6.9 °F -2.9 °F 49% 30.21 in 10.0 mi Variable 3.5 mph - N/A   Clear
2:54 AM 14.0 °F 1.2 °F -4.0 °F 45% 30.22 in 10.0 mi West 10.4 mph - N/A   Clear
3:54 AM 6.1 °F - -4.0 °F 63% 30.24 in 10.0 mi Calm Calm - N/A   Clear
4:54 AM 3.0 °F - -5.1 °F 69% 30.26 in 10.0 mi Calm Calm - N/A   Clear
5:54 AM 1.9 °F - -4.0 °F 76% 30.27 in 10.0 mi Calm Calm - N/A   Clear
6:54 AM -0.9 °F - -6.0 °F 79% 30.29 in 10.0 mi Calm Calm - N/A   Clear
7:54 AM -0.0 °F - -4.0 °F 83% 30.30 in - Calm Calm - N/A   Unknown
8:54 AM 6.1 °F - -2.0 °F 69% 30.29 in 10.0 mi Calm Calm - N/A   Partly Cloudy
9:54 AM 14.0 °F 6.5 °F 1.0 °F 56% 30.29 in 10.0 mi East 4.6 mph - N/A   Clear
10:54 AM 18.0 °F 12.7 °F 1.0 °F 48% 30.27 in 10.0 mi ESE 3.5 mph - N/A   Clear
11:54 AM 19.0 °F 13.9 °F 1.9 °F 47% 30.23 in 10.0 mi SE 3.5 mph - N/A   Clear
12:54 PM 21.9 °F 15.7 °F -0.0 °F 38% 30.19 in 10.0 mi West 4.6 mph - N/A   Clear
1:54 PM 24.1 °F 12.5 °F -0.0 °F 35% 30.17 in 10.0 mi West 12.7 mph 18.4 mph N/A   Clear
2:54 PM 24.1 °F 13.7 °F -0.0 °F 35% 30.18 in 10.0 mi WNW 10.4 mph - N/A   Clear
3:54 PM 24.1 °F 16.0 °F 1.0 °F 37% 30.18 in 10.0 mi WNW 6.9 mph - N/A   Clear
4:54 PM 23.0 °F 18.4 °F 1.9 °F 40% 30.19 in 10.0 mi Variable 3.5 mph - N/A   Partly Cloudy
5:54 PM 21.9 °F 17.2 °F 3.0 °F 44% 30.20 in - WNW 3.5 mph - N/A   Unknown
6:54 PM 21.0 °F 14.6 °F 5.0 °F 50% 30.20 in 10.0 mi West 4.6 mph - N/A   Overcast
7:54 PM 19.9 °F - 3.9 °F 50% 30.18 in 10.0 mi Calm Calm - N/A   Overcast
8:54 PM 19.9 °F - 3.9 °F 50% 30.17 in 10.0 mi Calm Calm - N/A   Mostly Cloudy
9:54 PM 16.0 °F - 7.0 °F 68% 30.17 in 10.0 mi Calm Calm - N/A   Overcast
10:54 PM 17.1 °F - 7.0 °F 65% 30.17 in 10.0 mi Calm Calm - N/A   Overcast
11:54 PM 18.0 °F - 6.1 °F 60% 30.16 in 10.0 mi Calm Calm - N/A   Overcast